Wetterdaten: Samstag, 08.01.2011
Datum Zeit Temp. Auen Feucht Auen Luftdruck Regen Richtung Richtung Windben
08.01.2011 00:00 0,3 C 78 % 1087,8 hPa 0,0 mm N 0 0,0 km/h (0 Bft)
08.01.2011 00:05 0,3 C 78 % 1088,0 hPa 0,0 mm N 0 0,0 km/h (0 Bft)
08.01.2011 00:10 0,2 C 78 % 1087,8 hPa 0,0 mm N 0 0,0 km/h (0 Bft)
08.01.2011 00:15 0,3 C 78 % 1087,8 hPa 0,0 mm N 0 0,0 km/h (0 Bft)
08.01.2011 00:20 0,4 C 78 % 1087,5 hPa 0,0 mm N 0 0,0 km/h (0 Bft)
08.01.2011 00:25 0,3 C 77 % 1087,7 hPa 0,0 mm N 0 0,0 km/h (0 Bft)
08.01.2011 00:30 0,3 C 77 % 1087,7 hPa 0,0 mm N 0 0,0 km/h (0 Bft)
08.01.2011 00:35 0,2 C 77 % 1087,8 hPa 0,0 mm N 0 0,0 km/h (0 Bft)
08.01.2011 00:40 0,3 C 77 % 1087,7 hPa 0,0 mm N 0 0,0 km/h (0 Bft)
08.01.2011 00:45 0,4 C 77 % 1087,5 hPa 0,0 mm N 0 0,0 km/h (0 Bft)
08.01.2011 00:50 0,4 C 76 % 1087,4 hPa 0,0 mm N 0 0,0 km/h (0 Bft)
08.01.2011 00:55 0,2 C 76 % 1087,6 hPa 0,0 mm N 0 0,0 km/h (0 Bft)
08.01.2011 01:00 0,1 C 76 % 1087,7 hPa 0,0 mm N 0 0,0 km/h (0 Bft)
08.01.2011 01:05 0,1 C 76 % 1087,7 hPa 0,0 mm N 0 0,0 km/h (0 Bft)
08.01.2011 01:10 0,0 C 76 % 1087,7 hPa 0,0 mm N 0 0,0 km/h (0 Bft)
08.01.2011 01:15 0,0 C 76 % 1087,2 hPa 0,0 mm N 0 0,0 km/h (0 Bft)
08.01.2011 01:20 -0,2 C 77 % 1087,6 hPa 0,0 mm N 0 0,0 km/h (0 Bft)
08.01.2011 01:25 -0,3 C 77 % 1087,6 hPa 0,0 mm N 0 0,0 km/h (0 Bft)
08.01.2011 01:30 -0,5 C 78 % 1087,7 hPa 0,0 mm N 0 0,0 km/h (0 Bft)
08.01.2011 01:35 -0,5 C 78 % 1087,7 hPa 0,0 mm N 0 0,0 km/h (0 Bft)
08.01.2011 01:40 -0,5 C 78 % 1087,6 hPa 0,0 mm N 0 0,0 km/h (0 Bft)
08.01.2011 01:45 -0,5 C 78 % 1087,5 hPa 0,0 mm N 0 0,0 km/h (0 Bft)
08.01.2011 01:50 -0,7 C 79 % 1087,5 hPa 0,0 mm N 0 0,0 km/h (0 Bft)
08.01.2011 01:55 -0,6 C 78 % 1087,5 hPa 0,0 mm N 0 0,0 km/h (0 Bft)
08.01.2011 02:00 -0,6 C 78 % 1087,5 hPa 0,0 mm N 0 0,0 km/h (0 Bft)
08.01.2011 02:05 -0,6 C 78 % 1087,6 hPa 0,0 mm N 0 0,0 km/h (0 Bft)
08.01.2011 02:10 -0,7 C 78 % 1087,6 hPa 0,0 mm N 0 0,0 km/h (0 Bft)
08.01.2011 02:15 -0,8 C 79 % 1087,5 hPa 0,0 mm N 0 0,0 km/h (0 Bft)
08.01.2011 02:20 -0,8 C 79 % 1087,5 hPa 0,0 mm N 0 0,0 km/h (0 Bft)
08.01.2011 02:25 -0,8 C 79 % 1087,7 hPa 0,0 mm N 0 0,0 km/h (0 Bft)
08.01.2011 02:30 -1,0 C 79 % 1087,5 hPa 0,0 mm N 0 0,0 km/h (0 Bft)
08.01.2011 02:35 -0,7 C 79 % 1087,3 hPa 0,0 mm N 0 0,0 km/h (0 Bft)
08.01.2011 02:40 -0,6 C 78 % 1087,3 hPa 0,0 mm N 0 0,0 km/h (0 Bft)
08.01.2011 02:45 -0,9 C 79 % 1087,3 hPa 0,0 mm N 0 0,0 km/h (0 Bft)
08.01.2011 02:50 -0,9 C 79 % 1087,5 hPa 0,0 mm N 0 0,0 km/h (0 Bft)
08.01.2011 02:55 -0,9 C 79 % 1087,5 hPa 0,0 mm N 0 0,0 km/h (0 Bft)
08.01.2011 03:00 -0,9 C 79 % 1087,7 hPa 0,0 mm N 0 0,0 km/h (0 Bft)
08.01.2011 03:05 -0,9 C 79 % 1087,8 hPa 0,0 mm N 0 0,0 km/h (0 Bft)
08.01.2011 03:10 -0,9 C 77 % 1087,5 hPa 0,0 mm N 0 0,0 km/h (0 Bft)
08.01.2011 03:15 -0,8 C 77 % 1087,4 hPa 0,0 mm N 0 0,0 km/h (0 Bft)
08.01.2011 03:20 -0,9 C 77 % 1087,4 hPa 0,0 mm N 0 0,0 km/h (0 Bft)
08.01.2011 03:25 -1,0 C 77 % 1087,4 hPa 0,0 mm N 0 0,0 km/h (0 Bft)
08.01.2011 03:30 -0,9 C 78 % 1087,4 hPa 0,0 mm N 0 0,0 km/h (0 Bft)
08.01.2011 03:35 -0,9 C 77 % 1087,5 hPa 0,0 mm N 0 0,0 km/h (0 Bft)
08.01.2011 03:40 -0,9 C 77 % 1087,5 hPa 0,0 mm N 0 0,0 km/h (0 Bft)
08.01.2011 03:45 -0,8 C 77 % 1087,4 hPa 0,0 mm N 0 0,0 km/h (0 Bft)
08.01.2011 03:50 -0,8 C 77 % 1087,1 hPa 0,0 mm N 0 0,0 km/h (0 Bft)
08.01.2011 03:55 -0,7 C 76 % 1087,2 hPa 0,0 mm N 0 0,0 km/h (0 Bft)
08.01.2011 04:00 -0,7 C 76 % 1087,5 hPa 0,0 mm N 0 0,0 km/h (0 Bft)
08.01.2011 04:05 -0,7 C 76 % 1087,5 hPa 0,0 mm N 0 0,0 km/h (0 Bft)
08.01.2011 04:10 -0,5 C 76 % 1087,5 hPa 0,0 mm N 0 0,0 km/h (0 Bft)
08.01.2011 04:15 -0,4 C 75 % 1087,2 hPa 0,0 mm N 0 0,0 km/h (0 Bft)
08.01.2011 04:20 -0,5 C 75 % 1087,5 hPa 0,0 mm N 0 0,0 km/h (0 Bft)
08.01.2011 04:25 -0,7 C 74 % 1087,4 hPa 0,0 mm N 0 0,0 km/h (0 Bft)
08.01.2011 04:30 -0,8 C 74 % 1087,3 hPa 0,0 mm N 0 0,0 km/h (0 Bft)
08.01.2011 04:35 -0,8 C 74 % 1087,3 hPa 0,0 mm N 0 0,0 km/h (0 Bft)
08.01.2011 04:40 -0,9 C 74 % 1087,5 hPa 0,0 mm N 0 0,0 km/h (0 Bft)
08.01.2011 04:45 -0,9 C 74 % 1087,4 hPa 0,0 mm N 0 0,0 km/h (0 Bft)
08.01.2011 04:50 -0,8 C 74 % 1087,3 hPa 0,0 mm N 0 0,0 km/h (0 Bft)
08.01.2011 04:55 -0,9 C 74 % 1087,5 hPa 0,0 mm N 0 0,0 km/h (0 Bft)
08.01.2011 05:00 -0,9 C 74 % 1087,4 hPa 0,0 mm N 0 0,0 km/h (0 Bft)
08.01.2011 05:05 -0,9 C 74 % 1087,5 hPa 0,0 mm N 0 0,0 km/h (0 Bft)
08.01.2011 05:10 -0,9 C 74 % 1087,4 hPa 0,0 mm N 0 0,0 km/h (0 Bft)
08.01.2011 05:15 -0,9 C 74 % 1087,4 hPa 0,0 mm N 0 0,0 km/h (0 Bft)
08.01.2011 05:20 -0,8 C 74 % 1087,5 hPa 0,0 mm N 0 0,0 km/h (0 Bft)
08.01.2011 05:25 -0,8 C 74 % 1087,4 hPa 0,0 mm N 0 0,0 km/h (0 Bft)
08.01.2011 05:30 -0,9 C 74 % 1087,6 hPa 0,0 mm N 0 0,0 km/h (0 Bft)
08.01.2011 05:35 -0,9 C 74 % 1087,3 hPa 0,0 mm N 0 0,0 km/h (0 Bft)
08.01.2011 05:40 -0,8 C 74 % 1087,4 hPa 0,0 mm N 0 0,0 km/h (0 Bft)
08.01.2011 05:45 -0,9 C 74 % 1087,5 hPa 0,0 mm N 0 0,0 km/h (0 Bft)
08.01.2011 05:50 -1,0 C 74 % 1087,3 hPa 0,0 mm N 0 0,0 km/h (0 Bft)
08.01.2011 05:55 -1,0 C 74 % 1087,4 hPa 0,0 mm N 0 0,0 km/h (0 Bft)
08.01.2011 06:00 -0,9 C 74 % 1087,4 hPa 0,0 mm N 0 0,0 km/h (0 Bft)
08.01.2011 06:05 -0,9 C 74 % 1087,3 hPa 0,0 mm N 0 0,0 km/h (0 Bft)
08.01.2011 06:10 -0,6 C 73 % 1087,4 hPa 0,0 mm N 0 0,0 km/h (0 Bft)
08.01.2011 06:15 -0,5 C 73 % 1087,3 hPa 0,0 mm N 0 0,0 km/h (0 Bft)
08.01.2011 06:20 -0,5 C 73 % 1087,4 hPa 0,0 mm N 0 0,0 km/h (0 Bft)
08.01.2011 06:25 -0,5 C 73 % 1087,4 hPa 0,0 mm N 0 0,0 km/h (0 Bft)
08.01.2011 06:30 -0,5 C 73 % 1087,5 hPa 0,0 mm N 0 0,0 km/h (0 Bft)
08.01.2011 06:35 -0,6 C 73 % 1087,5 hPa 0,0 mm N 0 0,0 km/h (0 Bft)
08.01.2011 06:40 -0,5 C 73 % 1087,4 hPa 0,0 mm N 0 0,0 km/h (0 Bft)
08.01.2011 06:45 -0,4 C 73 % 1087,3 hPa 0,0 mm N 0 0,0 km/h (0 Bft)
08.01.2011 06:50 -0,4 C 73 % 1087,2 hPa 0,0 mm N 0 0,0 km/h (0 Bft)
08.01.2011 06:55 -0,4 C 73 % 1087,2 hPa 0,0 mm N 0 0,0 km/h (0 Bft)
08.01.2011 07:00 -0,4 C 73 % 1087,1 hPa 0,0 mm N 0 0,0 km/h (0 Bft)
08.01.2011 07:05 -0,4 C 73 % 1086,9 hPa 0,0 mm N 0 0,0 km/h (0 Bft)
08.01.2011 07:10 -0,3 C 73 % 1087,1 hPa 0,0 mm N 0 0,0 km/h (0 Bft)
08.01.2011 07:15 -0,2 C 73 % 1087,2 hPa 0,0 mm N 0 0,0 km/h (0 Bft)
08.01.2011 07:20 -0,1 C 73 % 1087,3 hPa 0,0 mm N 0 0,0 km/h (0 Bft)
08.01.2011 07:25 -0,1 C 73 % 1087,4 hPa 0,0 mm N 0 0,0 km/h (0 Bft)
08.01.2011 07:30 0,0 C 73 % 1087,3 hPa 0,0 mm N 0 0,0 km/h (0 Bft)
08.01.2011 07:35 0,0 C 73 % 1087,1 hPa 0,0 mm N 0 0,0 km/h (0 Bft)
08.01.2011 07:40 0,0 C 73 % 1087,3 hPa 0,0 mm N 0 0,0 km/h (0 Bft)
08.01.2011 07:45 -0,1 C 73 % 1087,5 hPa 0,0 mm N 0 0,0 km/h (0 Bft)
08.01.2011 07:50 -0,1 C 73 % 1087,5 hPa 0,0 mm N 0 0,0 km/h (0 Bft)
08.01.2011 07:55 0,0 C 73 % 1087,4 hPa 0,0 mm N 0 0,0 km/h (0 Bft)
08.01.2011 08:00 0,1 C 73 % 1087,7 hPa 0,0 mm N 0 0,0 km/h (0 Bft)
08.01.2011 08:05 0,1 C 73 % 1087,7 hPa 0,0 mm N 0 0,0 km/h (0 Bft)
08.01.2011 08:10 0,1 C 73 % 1087,7 hPa 0,0 mm N 0 0,0 km/h (0 Bft)
08.01.2011 08:15 0,1 C 73 % 1087,7 hPa 0,0 mm N 0 0,0 km/h (0 Bft)
08.01.2011 08:20 0,1 C 73 % 1087,9 hPa 0,0 mm N 0 0,0 km/h (0 Bft)
08.01.2011 08:25 0,2 C 73 % 1087,9 hPa 0,0 mm N 0 0,0 km/h (0 Bft)
08.01.2011 08:30 0,3 C 73 % 1088,0 hPa 0,0 mm N 0 0,0 km/h (0 Bft)
08.01.2011 08:35 0,3 C 73 % 1088,0 hPa 0,0 mm N 0 0,0 km/h (0 Bft)
08.01.2011 08:40 0,5 C 74 % 1088,1 hPa 0,0 mm N 0 0,0 km/h (0 Bft)
08.01.2011 08:45 0,6 C 74 % 1087,9 hPa 0,0 mm N 0 0,0 km/h (0 Bft)
08.01.2011 08:50 0,6 C 74 % 1087,8 hPa 0,0 mm N 0 0,0 km/h (0 Bft)
08.01.2011 08:55 0,8 C 75 % 1088,0 hPa 0,0 mm N 0 0,0 km/h (0 Bft)
08.01.2011 09:00 0,9 C 76 % 1087,9 hPa 0,0 mm N 0 0,0 km/h (0 Bft)
08.01.2011 09:05 0,9 C 76 % 1087,9 hPa 0,0 mm N 0 0,0 km/h (0 Bft)
08.01.2011 09:10 1,1 C 76 % 1087,8 hPa 0,0 mm N 0 0,0 km/h (0 Bft)
08.01.2011 09:15 1,1 C 76 % 1087,7 hPa 0,0 mm N 0 0,0 km/h (0 Bft)
08.01.2011 09:20 1,1 C 76 % 1088,0 hPa 0,0 mm N 0 0,0 km/h (0 Bft)
08.01.2011 09:25 1,4 C 77 % 1087,8 hPa 0,0 mm N 0 0,0 km/h (0 Bft)
08.01.2011 09:30 1,4 C 77 % 1087,8 hPa 0,0 mm W 270 1,1 km/h (1 Bft)
08.01.2011 09:35 1,6 C 78 % 1087,7 hPa 0,0 mm W 270 1,1 km/h (1 Bft)
08.01.2011 09:40 1,8 C 78 % 1087,8 hPa 0,0 mm W 270 1,1 km/h (1 Bft)
08.01.2011 09:45 2,0 C 79 % 1087,8 hPa 0,0 mm N 0 0,0 km/h (0 Bft)
08.01.2011 09:50 2,0 C 79 % 1087,4 hPa 0,0 mm N 0 0,0 km/h (0 Bft)
08.01.2011 09:55 2,0 C 78 % 1087,8 hPa 0,0 mm N 0 0,0 km/h (0 Bft)
08.01.2011 10:00 2,0 C 78 % 1087,7 hPa 0,0 mm N 0 0,0 km/h (0 Bft)
08.01.2011 10:05 2,0 C 78 % 1087,8 hPa 0,0 mm N 0 0,0 km/h (0 Bft)
08.01.2011 10:10 2,0 C 78 % 1087,8 hPa 0,0 mm N 0 0,0 km/h (0 Bft)
08.01.2011 10:15 1,7 C 77 % 1087,9 hPa 0,0 mm N 0 0,0 km/h (0 Bft)
08.01.2011 10:20 1,8 C 78 % 1087,7 hPa 0,0 mm N 0 0,0 km/h (0 Bft)
08.01.2011 10:25 0,3 C 15 % 1088,1 hPa 0,0 mm N 0 0,0 km/h (0 Bft)
08.01.2011 10:30 0,4 C 13 % 1088,1 hPa 0,6 mm N 0 0,0 km/h (0 Bft)
08.01.2011 10:35 0,4 C 13 % 1088,2 hPa 0,0 mm N 0 0,0 km/h (0 Bft)
08.01.2011 10:40 2,4 C 78 % 1087,8 hPa 0,0 mm N 0 0,0 km/h (0 Bft)
08.01.2011 10:45 2,4 C 77 % 1087,5 hPa 0,0 mm N 0 0,0 km/h (0 Bft)
08.01.2011 10:50 2,4 C 77 % 1087,7 hPa 0,0 mm N 0 0,0 km/h (0 Bft)
08.01.2011 10:55 2,4 C 77 % 1087,8 hPa 0,0 mm N 0 0,0 km/h (0 Bft)
08.01.2011 11:00 2,7 C 77 % 1087,7 hPa 0,0 mm N 0 0,0 km/h (0 Bft)
08.01.2011 11:05 2,7 C 77 % 1087,8 hPa 0,0 mm N 0 0,0 km/h (0 Bft)
08.01.2011 11:10 2,7 C 77 % 1087,9 hPa 0,0 mm N 0 0,0 km/h (0 Bft)
08.01.2011 11:15 3,0 C 76 % 1087,5 hPa 0,6 mm N 0 0,0 km/h (0 Bft)
08.01.2011 11:20 3,0 C 76 % 1087,4 hPa 0,0 mm N 0 0,0 km/h (0 Bft)
08.01.2011 11:25 3,0 C 76 % 1087,8 hPa 0,0 mm N 0 0,0 km/h (0 Bft)
08.01.2011 11:30 3,0 C 76 % 1088,2 hPa 0,0 mm N 0 0,0 km/h (0 Bft)
08.01.2011 11:35 3,0 C 76 % 1088,2 hPa 0,0 mm N 0 0,0 km/h (0 Bft)
08.01.2011 11:40 3,0 C 76 % 1088,5 hPa 0,0 mm N 0 0,0 km/h (0 Bft)
08.01.2011 11:45 3,0 C 76 % 1088,6 hPa 0,0 mm N 0 0,0 km/h (0 Bft)
08.01.2011 11:50 3,0 C 76 % 1088,5 hPa 0,0 mm N 0 0,0 km/h (0 Bft)
08.01.2011 11:55 3,0 C 76 % 1088,5 hPa 0,0 mm N 0 0,0 km/h (0 Bft)
08.01.2011 12:00 3,0 C 76 % 1088,5 hPa 0,0 mm N 0 0,0 km/h (0 Bft)
08.01.2011 12:05 3,0 C 76 % 1088,4 hPa 0,0 mm N 0 0,0 km/h (0 Bft)
08.01.2011 12:10 5,4 C 69 % 1087,7 hPa 0,0 mm N 0 0,0 km/h (0 Bft)
08.01.2011 12:15 5,4 C 69 % 1087,8 hPa 0,0 mm N 0 0,0 km/h (0 Bft)
08.01.2011 12:20 5,5 C 65 % 1087,6 hPa 0,0 mm S-SW 208 5,0 km/h (1 Bft)
08.01.2011 12:25 5,5 C 65 % 1087,8 hPa 0,0 mm W-SW 253 5,0 km/h (1 Bft)
08.01.2011 12:30 5,5 C 65 % 1087,6 hPa 0,0 mm W-SW 253 5,0 km/h (1 Bft)
08.01.2011 12:35 5,5 C 65 % 1087,8 hPa 0,0 mm W-SW 253 5,0 km/h (1 Bft)
08.01.2011 12:40 5,5 C 65 % 1087,8 hPa 0,0 mm W-SW 253 5,0 km/h (1 Bft)
08.01.2011 12:45 5,5 C 65 % 1087,7 hPa 0,0 mm W-SW 253 5,0 km/h (1 Bft)
08.01.2011 12:50 5,5 C 65 % 1087,8 hPa 0,0 mm W-SW 253 5,0 km/h (1 Bft)
08.01.2011 12:55 5,8 C 64 % 1087,7 hPa 0,0 mm SW 225 6,1 km/h (2 Bft)
08.01.2011 13:00 5,8 C 73 % 1087,8 hPa 60,0 mm W-SW 239 6,1 km/h (2 Bft)
08.01.2011 13:05 5,8 C 73 % 1087,9 hPa 0,0 mm W 265 6,1 km/h (2 Bft)
08.01.2011 13:10 5,8 C 73 % 1087,9 hPa 0,0 mm W 270 3,6 km/h (1 Bft)
08.01.2011 13:15 5,8 C 65 % 1088,1 hPa 0,0 mm W 270 3,6 km/h (1 Bft)
08.01.2011 13:20 5,6 C 65 % 1088,0 hPa 0,0 mm S 181 6,1 km/h (2 Bft)
08.01.2011 13:25 5,7 C 66 % 1087,8 hPa 0,0 mm S 174 6,1 km/h (2 Bft)
08.01.2011 13:30 5,9 C 66 % 1087,5 hPa 0,0 mm S-SO 166 3,6 km/h (1 Bft)
08.01.2011 13:35 5,7 C 66 % 1087,3 hPa 0,0 mm SO 135 1,1 km/h (1 Bft)
08.01.2011 13:40 5,6 C 67 % 1087,5 hPa 0,0 mm N 0 0,0 km/h (0 Bft)
08.01.2011 13:45 5,4 C 66 % 1087,5 hPa 0,0 mm N 0 0,0 km/h (0 Bft)
08.01.2011 13:50 5,3 C 67 % 1087,3 hPa 0,0 mm N 0 0,0 km/h (0 Bft)
08.01.2011 13:55 5,2 C 67 % 1087,2 hPa 0,0 mm N 0 0,0 km/h (0 Bft)
08.01.2011 14:00 4,4 C 68 % 1087,5 hPa 0,0 mm NO 46 6,1 km/h (2 Bft)
08.01.2011 14:05 4,4 C 68 % 1087,6 hPa 0,0 mm NO 46 6,1 km/h (2 Bft)
08.01.2011 14:10 3,9 C 70 % 1087,8 hPa 0,0 mm O-SO 107 6,1 km/h (2 Bft)
08.01.2011 14:15 3,9 C 70 % 1087,7 hPa 0,0 mm SO 131 6,1 km/h (2 Bft)
08.01.2011 14:20 3,9 C 70 % 1087,7 hPa 0,0 mm SO 137 6,1 km/h (2 Bft)
08.01.2011 14:25 3,9 C 70 % 1087,6 hPa 0,0 mm SO 137 6,1 km/h (2 Bft)
08.01.2011 14:30 3,9 C 70 % 1087,8 hPa 0,0 mm SO 137 6,1 km/h (2 Bft)
08.01.2011 14:35 4,6 C 69 % 1087,6 hPa 0,0 mm N 0 0,0 km/h (0 Bft)
08.01.2011 14:40 4,6 C 69 % 1087,5 hPa 0,0 mm N 0 0,0 km/h (0 Bft)
08.01.2011 14:45 4,6 C 69 % 1087,5 hPa 0,0 mm N 0 0,0 km/h (0 Bft)
08.01.2011 14:50 4,6 C 69 % 1087,5 hPa 0,0 mm N 0 0,0 km/h (0 Bft)
08.01.2011 14:55 4,6 C 69 % 1087,5 hPa 0,0 mm N 0 0,0 km/h (0 Bft)
08.01.2011 15:00 4,9 C 69 % 1087,5 hPa 0,0 mm N 0 0,0 km/h (0 Bft)
08.01.2011 15:02 4,9 C 69 % 1087,4 hPa 0,0 mm N 0 0,0 km/h (0 Bft)
08.01.2011 15:07 4,9 C 69 % 1087,4 hPa 0,0 mm N 0 0,0 km/h (0 Bft)
08.01.2011 15:12 4,9 C 68 % 1087,4 hPa 0,0 mm N 0 0,0 km/h (0 Bft)
08.01.2011 15:17 4,8 C 68 % 1087,5 hPa 0,0 mm N 0 0,0 km/h (0 Bft)
08.01.2011 15:22 5,0 C 70 % 1087,4 hPa 0,0 mm N 0 0,0 km/h (0 Bft)
08.01.2011 15:27 5,1 C 69 % 1087,3 hPa 0,0 mm N 0 0,0 km/h (0 Bft)
08.01.2011 15:30 5,0 C 69 % 1087,3 hPa 0,0 mm N 0 0,0 km/h (0 Bft)
08.01.2011 15:35 4,9 C 69 % 1087,3 hPa 0,0 mm SW 225 5,0 km/h (1 Bft)
08.01.2011 15:40 4,7 C 69 % 1087,4 hPa 0,0 mm SW 225 5,0 km/h (1 Bft)
08.01.2011 15:45 4,4 C 69 % 1087,5 hPa 0,0 mm SW 225 5,0 km/h (1 Bft)
08.01.2011 15:50 4,1 C 69 % 1087,5 hPa 0,0 mm N 0 0,0 km/h (0 Bft)
08.01.2011 15:55 3,6 C 70 % 1087,8 hPa 0,0 mm N 0 0,0 km/h (0 Bft)
08.01.2011 16:00 3,4 C 71 % 1087,6 hPa 0,0 mm SW 225 2,5 km/h (1 Bft)
08.01.2011 16:05 3,3 C 71 % 1087,6 hPa 0,0 mm SW 225 2,5 km/h (1 Bft)
08.01.2011 16:10 3,0 C 73 % 1087,8 hPa 0,0 mm SW 225 2,5 km/h (1 Bft)
08.01.2011 16:15 2,8 C 73 % 1087,8 hPa 0,0 mm N 0 0,0 km/h (0 Bft)
08.01.2011 16:20 2,7 C 73 % 1087,8 hPa 0,0 mm N 0 0,0 km/h (0 Bft)
08.01.2011 16:25 2,6 C 74 % 1087,8 hPa 0,0 mm N 0 0,0 km/h (0 Bft)
08.01.2011 16:30 2,4 C 75 % 1088,0 hPa 0,0 mm SW 225 2,5 km/h (1 Bft)
08.01.2011 16:35 2,2 C 75 % 1088,1 hPa 0,0 mm SW 225 2,5 km/h (1 Bft)
08.01.2011 16:40 2,0 C 75 % 1088,0 hPa 0,0 mm SW 225 3,6 km/h (1 Bft)
08.01.2011 16:45 1,9 C 76 % 1088,2 hPa 0,0 mm SW 225 3,6 km/h (1 Bft)
08.01.2011 16:50 1,8 C 76 % 1088,2 hPa 0,0 mm SW 225 3,6 km/h (1 Bft)
08.01.2011 16:55 1,6 C 76 % 1088,4 hPa 0,0 mm W 262 2,5 km/h (1 Bft)
08.01.2011 17:00 1,6 C 76 % 1088,3 hPa 0,0 mm W-SW 242 2,5 km/h (1 Bft)
08.01.2011 17:05 1,6 C 76 % 1088,3 hPa 0,0 mm SW 225 1,1 km/h (1 Bft)
08.01.2011 17:10 1,6 C 76 % 1088,4 hPa 0,0 mm SW 225 1,1 km/h (1 Bft)
08.01.2011 17:15 1,1 C 77 % 1088,5 hPa 0,0 mm SW 225 1,1 km/h (1 Bft)
08.01.2011 17:20 0,9 C 77 % 1088,7 hPa 0,0 mm SW 225 1,1 km/h (1 Bft)
08.01.2011 17:25 0,7 C 77 % 1088,7 hPa 0,0 mm SW 225 2,5 km/h (1 Bft)
08.01.2011 17:30 0,7 C 78 % 1088,6 hPa 0,0 mm SW 225 2,5 km/h (1 Bft)
08.01.2011 17:35 0,6 C 78 % 1088,8 hPa 0,0 mm SW 225 2,5 km/h (1 Bft)
08.01.2011 17:40 0,6 C 78 % 1088,7 hPa 0,0 mm N 0 0,0 km/h (0 Bft)
08.01.2011 17:45 0,7 C 79 % 1088,7 hPa 0,0 mm SW 225 3,6 km/h (1 Bft)
08.01.2011 17:50 0,5 C 79 % 1088,9 hPa 0,0 mm SW 225 3,6 km/h (1 Bft)
08.01.2011 17:55 0,5 C 79 % 1088,9 hPa 0,0 mm N 0 0,0 km/h (0 Bft)
08.01.2011 18:00 0,3 C 79 % 1089,0 hPa 0,0 mm N 0 0,0 km/h (0 Bft)
08.01.2011 18:05 0,3 C 79 % 1089,0 hPa 0,0 mm N 0 0,0 km/h (0 Bft)
08.01.2011 18:10 0,2 C 80 % 1088,9 hPa 0,0 mm SW 225 3,6 km/h (1 Bft)
08.01.2011 18:15 0,2 C 80 % 1088,9 hPa 0,0 mm SW 225 3,6 km/h (1 Bft)
08.01.2011 18:20 0,3 C 80 % 1089,1 hPa 0,0 mm SW 225 3,6 km/h (1 Bft)
08.01.2011 18:25 0,3 C 80 % 1089,1 hPa 0,0 mm SW 225 3,6 km/h (1 Bft)
08.01.2011 18:30 0,3 C 80 % 1089,2 hPa 0,0 mm N 0 0,0 km/h (0 Bft)
08.01.2011 18:35 -0,2 C 80 % 1089,1 hPa 0,0 mm N 0 0,0 km/h (0 Bft)
08.01.2011 18:40 -0,3 C 80 % 1089,3 hPa 0,0 mm SW 225 5,0 km/h (1 Bft)
08.01.2011 18:45 -0,3 C 80 % 1089,2 hPa 0,0 mm SW 225 5,0 km/h (1 Bft)
08.01.2011 18:50 -0,3 C 81 % 1089,3 hPa 0,0 mm SW 225 5,0 km/h (1 Bft)
08.01.2011 18:55 -0,3 C 81 % 1088,9 hPa 0,0 mm SW 225 5,0 km/h (1 Bft)
08.01.2011 19:00 -0,8 C 80 % 1089,3 hPa 0,0 mm N 0 0,0 km/h (0 Bft)
08.01.2011 19:05 -0,8 C 80 % 1089,2 hPa 0,0 mm N 0 0,0 km/h (0 Bft)
08.01.2011 19:10 -0,9 C 81 % 1089,4 hPa 0,0 mm N 0 0,0 km/h (0 Bft)
08.01.2011 19:15 -0,9 C 81 % 1089,3 hPa 0,0 mm N 0 0,0 km/h (0 Bft)
08.01.2011 19:20 -1,1 C 81 % 1089,2 hPa 0,0 mm N 0 0,0 km/h (0 Bft)
08.01.2011 19:25 -1,2 C 81 % 1089,3 hPa 0,0 mm N 0 0,0 km/h (0 Bft)
08.01.2011 19:30 -1,2 C 81 % 1089,3 hPa 0,0 mm N 0 0,0 km/h (0 Bft)
08.01.2011 19:35 -1,2 C 81 % 1089,5 hPa 0,0 mm N 0 0,0 km/h (0 Bft)
08.01.2011 19:40 -1,2 C 81 % 1089,4 hPa 0,0 mm N 0 0,0 km/h (0 Bft)
08.01.2011 19:45 -1,2 C 81 % 1089,5 hPa 0,0 mm N 0 0,0 km/h (0 Bft)
08.01.2011 19:50 -1,2 C 81 % 1089,3 hPa 0,0 mm N 0 0,0 km/h (0 Bft)
08.01.2011 19:55 -1,2 C 81 % 1089,0 hPa 0,0 mm N 0 0,0 km/h (0 Bft)
08.01.2011 20:00 -1,2 C 81 % 1089,3 hPa 0,0 mm N 0 0,0 km/h (0 Bft)
08.01.2011 20:05 -1,2 C 81 % 1089,4 hPa 0,0 mm N 0 0,0 km/h (0 Bft)
08.01.2011 20:10 -1,2 C 81 % 1089,3 hPa 0,0 mm N 0 0,0 km/h (0 Bft)
08.01.2011 20:15 -1,2 C 81 % 1089,3 hPa 0,0 mm N 0 0,0 km/h (0 Bft)
08.01.2011 20:20 -1,2 C 81 % 1089,0 hPa 0,0 mm N 0 0,0 km/h (0 Bft)
08.01.2011 20:25 -1,2 C 81 % 1089,0 hPa 0,0 mm N 0 0,0 km/h (0 Bft)
08.01.2011 20:30 -1,2 C 81 % 1089,0 hPa 0,0 mm N 0 0,0 km/h (0 Bft)
08.01.2011 20:35 -1,2 C 81 % 1089,0 hPa 0,0 mm N 0 0,0 km/h (0 Bft)
08.01.2011 20:40 -1,2 C 81 % 1088,9 hPa 0,0 mm N 0 0,0 km/h (0 Bft)
08.01.2011 20:45 -1,2 C 81 % 1088,8 hPa 0,0 mm N 0 0,0 km/h (0 Bft)
08.01.2011 20:50 -1,2 C 81 % 1088,7 hPa 0,0 mm N 0 0,0 km/h (0 Bft)
08.01.2011 20:55 -1,2 C 81 % 1088,8 hPa 0,0 mm N 0 0,0 km/h (0 Bft)
_ Min-Zeit 19:25 10:30 07:05 - - - 00:00
Minimum _ -1,2 C 13 % 1086,9 hPa - - - 0,0 km/h (0 Bft)
_ Max-Zeit 13:30 18:50 19:35 13:00 - - 12:55
Maximum _ 5,9 C 81 % 1089,5 hPa 60,0 mm - - 6,1 km/h
SW (2 Bft)
Durchschnitt _ 1,1 C 74 % 1087,9 hPa #61,2 mm N - 0,9 km/h (0 Bft)